Location: Complexul Astronomic Baia Mare
(47.6577°N, 23.5639°E)
Time: 05:49:19
(UTC+03:00)

ISS - Pass Details

Date: 30 March 2017
Orbit: 399 x 409 km, 51.6° (Epoch: 30 March)

Event Time Altitude Azimuth Distance (km) Brightness Sun altitude
Rises 21:49:44 0° 255° (WSW) 2,308 0.7 -19.4°
Reaches altitude 10° 21:51:49 10° 258° (WSW) 1,453 -0.4 -19.7°
Maximum altitude 21:55:04 64° 341° (NNW) 450 -3.5 -20.2°
Enters shadow 21:55:20 61° 13° (NNE) 465 -3.6 -20.2°
